Wind_Speed
29 28 28 27 27 26 25 24 23 22 21 21 21 22 23 24 26 27 28 29 30 30 30 30 31 31 31 31 32 34 36 38 40 42 43 43 43 44 44 44 44 45 46 46 45 45 44 44 43 43 42 41 41 41 40 39 37 35 33 34 34 36 38
31 31 30 29 29 28 28 27 25 24 23 23 23 24 24 25 27 28 29 30 31 31 31 31 32 32 33 33 34 34 36 37 38 39 39 40 41 42 43 44 45 46 46 46 45 44 44 44 43 42 40 39 38 37 36 34 32 31 32 34 36 37 40
32 31 31 30 30 29 29 29 28 26 24 24 24 24 24 25 26 28 29 30 31 32 33 33 33 33 33 34 35 35 35 36 36 36 37 37 38 39 40 41 43 43 43 43 43 43 42 41 40 39 37 35 33 32 31 29 28 29 32 35 38 40 40
32 31 30 29 29 28 29 29 28 28 26 25 23 22 22 23 24 26 28 29 32 33 34 33 33 33 34 34 34 35 35 34 34 34 34 35 35 36 37 38 39 39 39 39 39 39 39 37 36 34 32 29 27 26 27 27 28 29 32 36 39 39 33
29 29 28 27 26 25 25 25 24 25 24 23 22 22 21 23 24 26 27 30 33 35 35 35 34 34 34 33 33 33 34 33 33 32 32 32 33 33 34 34 35 36 36 36 36 35 34 33 31 29 26 24 23 24 26 29 31 32 34 37 36 31 24
26 26 26 25 23 19 19 20 20 21 21 21 21 22 23 26 28 28 30 32 35 36 36 36 35 34 33 32 32 32 32 32 31 31 30 31 31 31 31 32 32 33 33 33 32 31 29 27 24 23 22 22 23 24 27 31 34 36 37 36 31 25 22
25 25 25 23 20 14 11 12 14 16 19 21 23 25 27 29 30 31 32 34 35 36 37 37 35 33 31 29 28 29 29 29 29 29 29 30 30 30 30 30 30 30 30 30 28 26 24 21 20 20 22 24 25 27 29 32 35 37 37 33 27 24 24
25 25 23 21 19 15 14 13 10 10 15 20 22 23 24 25 27 28 28 29 30 31 33 33 33 32 29 26 25 26 27 27 27 27 28 29 29 29 29 28 28 28 27 26 24 23 21 19 19 21 24 26 28 30 31 33 35 36 34 30 27 26 26
24 22 21 20 18 17 19 17 12 10 12 13 14 15 15 19 23 24 24 25 28 30 30 29 29 29 27 24 23 24 25 25 25 26 27 27 27 27 26 26 25 25 23 21 20 19 18 19 21 23 25 27 29 31 32 33 35 34 31 28 28 29 29
25 23 22 21 19 19 20 18 14 11 10 8 13 16 17 20 22 22 24 24 25 27 28 28 27 26 25 24 23 23 24 25 25 25 26 26 26 25 24 24 23 22 21 19 18 18 18 19 22 24 26 27 29 31 32 33 33 32 29 29 29 30 32
26 26 26 24 22 21 20 18 17 16 12 6 11 16 19 20 19 23 27 25 24 26 27 29 32 32 31 28 25 25 24 24 25 25 25 25 25 24 23 22 21 20 20 19 19 19 20 21 24 26 27 28 30 31 31 32 32 31 30 31 31 32 34
26 27 29 29 27 24 21 21 22 20 13 6 8 12 17 20 17 20 29 26 24 27 30 33 37 38 38 37 32 29 27 25 25 25 26 25 24 23 22 21 20 19 20 20 20 21 22 24 26 28 29 30 31 31 32 32 32 32 32 33 34 35 38
25 26 29 31 29 25 23 23 21 16 10 7 7 9 15 17 12 12 24 27 24 27 32 37 40 40 39 39 37 34 30 27 27 26 26 26 24 23 21 20 20 20 21 22 22 22 24 26 27 30 31 32 33 33 33 33 34 34 35 36 37 38 41
22 24 27 28 27 23 21 21 18 12 10 12 10 10 12 15 11 3 7 13 19 28 33 36 39 40 39 38 38 37 32 28 28 28 28 27 26 23 22 21 21 21 22 23 24 24 25 27 29 31 33 34 34 34 34 34 35 37 38 38 39 41 43
22 24 25 24 22 20 20 21 18 14 15 19 17 15 14 16 14 3 3 3 12 25 30 31 35 39 41 42 43 41 35 30 28 29 30 29 28 25 23 22 22 23 23 25 26 26 27 29 30 31 33 34 35 36 36 36 37 38 40 41 42 43 46
25 25 23 22 20 20 21 23 20 18 22 26 26 23 20 18 14 8 4 6 15 22 23 25 32 39 44 47 47 44 39 32 28 29 29 30 30 29 26 24 24 25 26 27 28 29 29 30 32 33 34 36 37 38 38 38 39 40 42 43 44 46 49
25 25 23 21 20 20 22 23 22 21 24 28 30 28 24 20 15 12 11 13 17 19 18 22 30 37 43 45 44 42 39 33 30 30 31 31 31 31 29 27 27 27 28 29 30 31 31 32 34 35 37 38 38 38 39 40 41 42 43 44 46 49 51
24 24 23 21 20 20 22 24 23 21 22 27 29 25 22 21 18 15 13 12 15 18 19 20 22 26 36 42 39 37 36 34 33 32 33 33 33 32 31 29 29 29 30 31 32 33 34 35 36 38 39 39 38 38 39 40 41 42 44 46 48 50 53
22 22 21 20 19 20 21 22 22 21 23 27 26 19 19 18 15 15 14 12 12 17 20 18 13 13 24 31 29 28 32 36 38 37 37 36 35 34 33 31 30 30 31 33 35 36 36 37 38 40 41 40 39 39 40 41 42 44 46 47 49 51 54
19 18 18 19 19 19 20 21 22 22 24 26 23 18 18 16 15 18 17 14 14 16 17 15 12 13 20 25 23 25 33 39 42 43 42 40 39 38 36 34 32 31 31 33 36 37 38 38 39 41 41 40 40 40 41 41 43 45 46 48 50 52 54
16 15 15 17 18 19 19 20 21 22 24 25 24 22 22 20 20 23 23 19 19 19 18 17 16 16 21 25 26 29 36 41 44 45 44 41 41 40 38 36 34 33 32 33 36 38 39 39 40 41 41 41 41 41 41 42 44 45 47 48 50 52 53
15 15 17 18 18 18 19 20 21 22 22 24 25 24 25 25 24 25 27 27 25 23 23 24 22 22 25 28 29 31 34 37 40 43 44 44 43 42 41 40 36 34 33 32 34 37 39 39 40 39 40 41 41 41 42 43 45 46 47 48 50 53 56
15 16 19 20 19 18 19 21 22 21 21 23 23 23 23 25 25 24 25 27 27 25 23 22 24 26 29 32 33 33 32 30 28 30 38 45 46 44 42 40 36 34 33 32 33 35 37 38 39 38 39 41 41 41 43 44 45 46 47 49 53 56 59
15 16 19 20 19 18 20 23 24 22 22 23 24 24 23 22 24 24 25 27 29 28 23 21 23 25 27 33 36 32 29 27 24 24 28 33 38 40 40 39 37 35 34 33 32 33 36 37 39 39 41 42 42 43 44 45 46 48 50 52 56 58 60
15 16 18 19 20 19 21 24 26 25 24 24 26 27 26 25 25 25 25 27 30 29 26 23 23 25 30 35 32 25 24 24 25 28 29 28 32 40 42 40 37 36 35 35 34 34 36 37 39 40 41 42 43 44 45 46 48 50 52 55 57 59 61
16 18 19 20 21 22 22 24 26 26 26 27 28 30 31 31 30 28 26 26 28 28 26 23 22 25 29 31 29 28 29 28 28 33 35 35 39 46 48 44 40 39 39 39 38 37 37 38 39 40 41 42 44 45 46 48 50 52 54 56 58 60 61
18 19 21 22 23 24 24 26 27 28 29 30 31 32 33 33 34 33 31 28 28 28 27 24 23 24 26 29 33 35 35 33 33 35 36 36 41 47 48 46 45 43 41 40 40 39 39 39 39 39 40 42 44 46 47 49 50 52 55 56 58 60 62
19 19 21 23 25 25 27 29 31 31 31 33 33 33 34 35 36 37 36 35 34 34 32 31 30 29 30 32 34 36 35 33 29 29 33 37 41 43 44 43 43 41 38 38 38 39 39 39 39 39 41 43 44 46 47 49 50 52 55 57 59 61 64
18 20 21 24 27 28 29 31 32 32 32 33 34 34 35 37 39 41 41 41 40 38 36 35 34 34 34 33 32 32 31 27 25 30 38 41 41 40 39 38 38 37 36 36 36 37 38 39 40 41 42 43 44 46 47 48 50 53 55 57 60 62 65
17 19 21 24 27 29 29 29 31 31 31 32 34 36 38 40 42 43 43 43 42 40 38 35 33 33 34 35 37 37 33 31 35 40 42 40 38 37 35 33 33 33 33 33 34 36 38 40 41 42 43 43 44 45 46 48 50 53 56 58 60 62 64
19 20 22 24 27 30 31 31 32 33 32 34 37 39 39 40 40 42 42 42 41 40 38 35 33 32 32 33 36 38 38 40 42 41 38 36 36 35 32 31 31 31 31 32 33 35 37 39 41 42 42 42 43 44 46 48 51 53 56 57 59 61 64
20 22 24 26 29 31 32 32 32 34 37 40 42 41 39 38 39 41 42 41 40 39 38 36 33 32 32 32 33 34 36 38 38 37 36 35 34 32 31 31 31 31 31 32 33 34 35 37 38 39 39 40 42 43 46 48 50 53 55 56 58 61 65
22 23 24 25 27 28 31 32 34 38 42 45 45 43 41 39 40 41 42 41 40 38 37 35 34 33 33 33 33 33 34 35 36 36 35 33 32 31 31 29 29 30 30 31 32 33 34 34 35 36 37 39 41 43 45 47 50 52 54 55 58 62 67
25 25 25 26 27 29 34 37 40 42 44 45 45 44 43 41 41 41 41 41 39 37 36 34 33 32 33 33 33 33 33 33 34 34 33 32 31 30 29 29 29 29 29 30 31 31 32 33 34 35 36 39 41 42 45 48 50 51 53 56 60 64 68
28 28 28 28 31 35 38 40 42 44 44 43 43 43 43 43 42 40 39 39 38 36 35 33 32 31 31 31 31 31 31 31 30 30 30 29 28 28 28 28 28 27 28 29 29 30 31 33 34 35 37 38 40 43 46 48 50 51 53 57 61 65 69
28 29 30 32 34 37 38 40 42 43 44 43 42 42 42 43 42 39 37 36 36 35 34 33 32 31 30 29 28 28 28 28 28 28 28 27 28 28 27 26 25 26 27 28 28 30 31 33 34 35 37 39 41 44 47 48 49 50 53 57 61 66 70
28 29 31 33 33 34 36 38 40 41 42 43 43 42 42 40 39 36 34 33 34 33 33 31 30 30 29 28 26 25 25 26 27 27 27 27 27 27 26 26 25 26 27 28 29 31 32 32 34 35 37 39 42 45 46 47 47 50 53 57 61 66 71
28 29 30 31 32 33 34 36 38 39 40 41 41 40 39 36 34 32 30 30 30 30 30 29 29 28 27 26 24 24 24 24 25 25 25 26 26 26 25 26 26 26 27 29 30 31 31 32 34 35 37 40 42 44 44 45 46 49 53 57 62 67 71
Wind_Direction
245 246 249 252 255 260 265 270 273 273 271 272 275 282 288 291 292 291 290 292 295 296 296 297 297 295 292 289 286 283 281 279 278 277 277 276 275 275 275 275 276 279 283 286 288 289 290 291 291 292 292 293 294 296 298 300 302 304 304 304 306 308 309
247 247 249 252 256 261 266 270 273 274 274 274 277 284 293 299 301 300 299 299 301 302 301 301 302 300 296 292 289 287 285 284 283 281 280 278 278 277 276 277 279 283 287 289 290 291 291 292 292 293 293 295 297 298 300 303 305 305 306 306 308 309 309
250 251 254 257 261 266 269 272 272 274 278 282 285 291 299 303 304 303 303 304 306 307 307 306 306 304 300 295 292 290 289 288 287 285 284 282 282 282 281 282 284 286 288 290 291 291 292 292 293 294 295 298 300 301 302 304 305 305 305 306 308 309 310
252 253 257 262 267 271 276 277 274 275 282 287 290 295 301 304 306 307 308 310 311 312 311 310 309 307 303 298 295 293 291 290 289 289 288 287 286 285 285 285 286 287 289 290 291 292 293 294 295 296 298 300 301 302 303 302 303 303 305 308 310 310 310
258 257 259 264 270 278 286 286 281 280 284 286 287 292 297 300 303 305 309 312 313 314 313 312 310 309 306 300 296 294 293 292 292 292 291 291 290 289 289 289 290 291 292 293 294 295 296 298 299 299 300 301 300 300 301 302 303 304 307 309 310 308 306
265 263 263 266 269 281 294 294 288 286 286 287 288 291 294 297 300 302 306 311 313 314 315 314 312 310 307 301 295 294 294 294 295 295 295 294 294 293 293 293 294 294 295 295 296 297 299 300 300 300 300 299 298 298 299 302 305 307 310 310 308 305 302
264 263 262 260 258 258 262 272 281 285 288 289 291 294 298 302 306 308 310 312 315 316 316 315 313 310 306 300 294 294 296 296 297 298 298 298 297 297 296 295 295 296 296 297 298 299 300 301 299 298 299 299 298 298 300 302 304 307 309 307 304 303 300
256 256 256 254 252 246 236 238 254 273 286 293 298 304 311 318 324 325 324 326 330 332 328 322 317 313 308 300 295 295 297 298 299 299 299 299 299 298 298 297 297 297 298 299 301 301 301 301 299 298 300 302 302 302 303 303 305 307 305 301 300 301 299
248 250 253 252 253 252 248 250 252 256 271 299 326 337 340 342 344 344 342 342 346 348 346 338 328 319 312 305 300 298 298 299 301 301 301 300 299 299 299 299 299 299 300 300 299 299 299 299 299 300 301 303 303 304 305 307 308 306 301 297 299 301 301
246 247 248 250 250 249 252 256 253 245 253 304 351 4 1 349 343 345 346 345 348 351 353 353 347 337 326 315 306 302 300 301 302 302 302 301 300 299 299 299 300 299 298 295 293 292 292 294 296 298 300 302 303 305 308 310 308 304 298 296 300 303 306
248 246 246 246 245 245 248 250 244 236 237 281 344 357 349 331 328 344 351 352 359 5 8 9 5 359 350 338 321 308 303 303 304 304 303 301 299 299 298 298 298 296 293 289 286 286 288 291 294 296 298 300 302 304 306 307 305 301 297 297 300 304 307
250 251 250 246 245 243 240 241 241 236 233 264 328 338 328 311 308 340 353 357 3 7 9 6 2 359 356 350 340 324 310 305 306 305 303 301 298 297 296 295 293 291 287 283 282 284 286 289 292 294 295 297 298 300 302 304 303 300 297 297 300 304 307
252 252 250 248 248 243 237 240 244 238 229 244 279 308 320 309 292 328 347 346 346 350 354 353 350 350 350 349 346 336 322 310 308 307 304 301 298 295 293 291 288 285 281 280 279 281 284 288 291 293 295 297 298 299 301 303 305 303 301 299 301 304 307
248 247 245 247 248 239 233 240 244 235 220 227 259 304 317 298 270 244 339 327 319 327 338 344 346 348 350 350 348 342 330 318 311 310 308 303 298 294 289 287 284 280 278 279 279 280 284 288 292 295 298 300 301 301 300 301 304 304 303 302 302 305 307
238 241 241 241 239 230 231 242 243 237 228 233 265 309 317 295 284 263 142 217 285 309 328 341 344 349 351 348 346 343 335 324 314 312 311 307 301 295 289 285 282 279 278 279 281 283 286 289 292 295 299 301 302 301 300 300 301 302 303 303 304 305 307
235 239 240 237 231 225 236 249 252 248 242 242 261 290 307 304 302 314 312 282 294 311 334 342 334 339 347 344 339 339 334 325 318 315 313 310 304 297 291 286 283 280 279 280 282 284 287 291 294 298 301 303 302 302 300 300 301 301 303 304 306 307 308
234 238 238 235 232 231 243 256 258 253 250 249 256 274 296 308 311 313 305 303 316 331 348 341 326 331 343 345 340 339 337 329 323 320 318 315 308 301 294 289 285 283 282 282 284 284 286 289 294 299 304 305 303 303 303 302 302 303 305 306 307 309 311
233 235 234 235 241 246 250 255 256 252 247 247 250 266 292 303 304 309 305 304 334 357 359 345 331 327 333 338 340 342 344 342 335 330 325 320 313 306 298 292 288 285 284 284 285 286 288 290 294 299 304 306 305 304 304 303 303 304 305 307 308 310 313
232 232 234 239 247 253 254 253 255 251 244 242 246 267 296 299 293 303 305 292 320 359 359 345 344 332 318 321 328 338 346 345 338 334 330 325 319 312 304 296 291 286 285 285 286 288 290 293 297 301 304 306 307 306 305 304 303 304 306 307 310 312 314
234 233 237 244 248 251 254 255 254 252 247 242 242 262 292 298 288 294 302 292 298 330 341 326 331 345 327 316 317 329 335 333 328 325 325 323 321 317 309 302 295 291 288 288 288 290 292 294 297 301 303 306 308 308 308 306 305 306 307 309 311 313 315
238 239 246 251 250 249 252 254 255 257 254 246 243 258 283 295 291 290 297 300 297 305 313 306 303 318 322 316 315 319 322 323 322 320 319 319 319 317 313 308 301 295 293 292 292 293 294 295 297 300 303 306 308 310 310 310 309 309 309 311 313 315 317
247 251 254 253 250 248 249 253 257 261 261 255 255 268 283 291 294 293 296 301 298 294 299 300 294 298 304 305 307 312 318 324 325 319 316 314 313 312 311 310 305 300 297 296 295 295 296 296 297 300 303 307 309 310 311 312 312 311 312 313 316 318 319
255 258 258 254 249 245 246 252 258 260 263 267 274 285 292 292 293 294 296 300 300 296 294 293 298 308 308 302 305 314 320 325 323 314 310 310 309 308 307 307 304 300 299 298 297 298 299 299 299 301 304 307 309 310 311 312 313 313 314 316 317 318 320
255 258 260 258 254 250 248 252 256 260 266 274 284 292 297 294 291 292 295 297 298 299 295 289 298 308 304 300 307 316 315 309 301 290 291 300 304 305 307 306 302 298 298 298 298 300 302 302 302 303 305 307 308 309 310 311 312 313 314 316 317 318 320
256 259 262 260 258 259 257 255 257 260 265 273 281 289 295 297 296 295 294 292 292 295 293 291 294 296 294 297 305 305 296 288 280 274 276 284 290 295 300 304 302 298 296 297 297 299 302 304 304 303 304 306 308 308 309 309 310 312 314 316 317 319 320
266 265 266 262 258 260 264 265 265 267 270 274 279 286 294 300 304 304 299 292 288 287 287 287 289 292 294 294 291 286 283 279 276 278 281 280 280 285 292 298 299 297 296 294 294 296 299 302 303 302 303 305 307 307 308 309 310 313 315 316 318 320 321
273 273 274 272 267 266 271 277 279 279 280 281 283 289 297 302 304 303 301 297 293 289 286 281 278 280 283 282 280 280 281 282 283 284 283 279 280 285 290 292 294 295 295 293 292 292 294 297 299 300 302 304 305 307 308 309 312 314 316 318 320 321 322
272 276 281 284 283 281 282 286 287 287 288 289 289 292 298 300 300 298 296 295 295 294 291 284 277 273 272 274 277 279 282 287 288 284 283 285 288 290 290 290 291 294 295 294 293 291 290 292 295 299 302 304 305 307 309 311 313 315 317 319 320 321 322
269 273 279 284 286 286 286 287 289 290 292 293 293 294 295 296 297 297 295 293 292 292 289 285 280 274 269 268 268 272 278 283 280 278 284 289 293 295 294 292 292 292 293 294 294 290 288 288 291 296 301 303 305 307 309 312 314 316 317 319 321 322 323
272 273 275 278 282 285 287 289 291 293 294 294 294 294 295 296 298 299 298 296 293 291 288 285 281 276 271 267 264 264 267 269 272 278 285 290 294 299 300 296 293 291 292 293 292 288 287 287 290 294 299 302 305 307 310 313 315 316 318 320 322 323 324
278 276 276 279 284 287 289 290 290 291 293 297 298 298 296 297 299 301 301 299 296 295 293 290 286 281 277 274 270 267 267 269 272 279 287 292 296 300 301 299 297 294 293 293 291 289 288 289 291 295 299 303 306 309 312 314 315 317 319 322 323 324 325
283 281 281 282 284 286 287 288 288 292 297 302 305 304 302 300 301 303 302 301 300 300 300 298 295 290 286 283 280 276 274 273 276 282 290 294 297 299 302 303 301 297 295 294 292 291 290 290 293 297 301 305 308 311 313 315 317 319 322 323 324 325 325
287 284 283 282 282 286 291 294 297 300 304 307 307 306 304 303 303 304 303 302 302 304 305 304 303 300 297 293 290 287 284 282 283 287 292 295 298 301 304 305 302 298 295 294 293 292 292 292 294 297 301 305 309 312 315 318 320 322 324 324 324 325 325
285 285 284 284 288 295 300 303 304 305 306 306 305 304 303 302 303 303 302 302 303 305 308 308 308 306 303 300 297 294 291 290 290 291 294 297 301 303 305 305 302 297 294 293 293 293 292 293 295 298 302 306 311 316 319 321 323 324 324 324 325 326 326
286 286 287 291 297 303 306 306 305 305 305 303 302 301 301 302 303 303 301 301 303 306 310 312 313 311 308 306 303 300 297 295 295 295 297 299 301 303 303 301 297 293 292 291 291 291 291 295 299 302 306 310 315 319 321 323 324 324 325 326 326 326 327
292 293 295 298 302 305 306 305 304 303 302 301 300 300 301 301 302 302 301 300 302 306 311 316 318 317 314 312 309 306 302 300 299 299 299 300 301 300 299 295 291 290 290 290 291 293 295 299 303 306 310 314 318 320 322 323 324 325 326 327 327 328 329
306 307 306 305 304 304 304 303 302 301 300 300 300 300 301 301 301 300 300 299 301 305 311 317 322 322 320 317 312 307 304 304 305 307 308 308 306 304 301 297 295 294 295 296 297 298 299 302 306 310 314 317 319 320 322 323 325 326 327 328 328 330 331
313 314 311 308 305 304 303 301 300 299 298 298 299 300 301 301 301 300 299 298 300 304 310 317 324 326 323 319 313 309 307 310 314 316 317 316 313 310 306 303 302 302 301 301 302 302 303 306 310 313 316 318 319 321 323 325 326 328 329 329 330 331 333
Height
10968 10968 10970 10971 10972 10974 10975 10976 10977 10977 10978 10979 10979 10979 10979 10979 10978 10978 10977 10976 10976 10975 10974 10973 10972 10971 10969 10968 10967 10966 10965 10964 10963 10961 10960 10958 10956 10956 10955 10954 10954 10953 10952 10952 10951 10950 10949 10948 10947 10945 10944 10942 10940 10939 10937 10936 10934 10932 10929 10927 10926 10924 10922
10966 10967 10969 10970 10972 10974 10975 10976 10976 10977 10977 10977 10977 10977 10977 10976 10976 10975 10974 10974 10973 10972 10970 10969 10968 10967 10966 10965 10964 10962 10961 10959 10958 10956 10954 10953 10951 10950 10950 10949 10949 10948 10947 10946 10945 10944 10944 10943 10942 10941 10940 10938 10936 10934 10933 10932 10931 10928 10926 10924 10922 10921 10919
10965 10966 10968 10970 10972 10973 10974 10975 10976 10976 10976 10975 10975 10975 10974 10974 10973 10972 10971 10970 10969 10968 10966 10965 10965 10964 10963 10961 10960 10958 10957 10955 10953 10951 10950 10948 10947 10946 10945 10945 10944 10943 10942 10941 10940 10939 10939 10938 10937 10936 10935 10934 10932 10930 10929 10928 10928 10926 10923 10920 10919 10917 10915
10964 10967 10969 10970 10972 10973 10973 10973 10973 10973 10972 10972 10972 10971 10971 10970 10970 10969 10967 10966 10965 10963 10962 10961 10960 10959 10958 10957 10956 10954 10953 10951 10949 10948 10946 10945 10943 10942 10942 10941 10940 10939 10938 10937 10936 10935 10934 10934 10933 10932 10931 10930 10928 10926 10924 10924 10924 10923 10921 10918 10915 10913 10911
10964 10967 10969 10971 10972 10973 10972 10971 10970 10969 10969 10968 10968 10967 10967 10966 10966 10965 10963 10962 10960 10959 10957 10956 10955 10954 10953 10952 10951 10950 10948 10947 10946 10944 10943 10942 10941 10940 10939 10938 10937 10936 10935 10934 10933 10931 10930 10929 10928 10928 10927 10926 10925 10924 10922 10920 10919 10919 10918 10916 10913 10910 10908
10965 10966 10968 10968 10970 10971 10970 10968 10966 10965 10965 10964 10964 10963 10963 10962 10962 10961 10960 10958 10956 10954 10953 10951 10950 10948 10947 10947 10946 10945 10945 10944 10942 10941 10940 10939 10938 10937 10937 10935 10934 10933 10931 10930 10929 10928 10927 10926 10925 10924 10924 10923 10923 10922 10920 10918 10915 10914 10913 10912 10910 10907 10905
10963 10962 10962 10962 10963 10964 10963 10960 10960 10961 10962 10961 10960 10960 10959 10959 10958 10957 10956 10955 10953 10951 10948 10946 10945 10943 10942 10942 10941 10941 10941 10940 10939 10938 10937 10937 10936 10935 10934 10933 10932 10930 10929 10927 10926 10925 10924 10924 10923 10922 10921 10921 10920 10920 10919 10917 10914 10911 10909 10908 10906 10904 10902
10957 10956 10956 10957 10959 10959 10957 10954 10954 10955 10957 10957 10957 10957 10956 10955 10954 10952 10951 10950 10949 10946 10944 10942 10940 10939 10938 10938 10937 10938 10938 10937 10937 10936 10935 10934 10933 10932 10931 10930 10928 10927 10926 10925 10923 10923 10922 10922 10922 10921 10920 10918 10917 10916 10915 10914 10912 10910 10907 10905 10904 10902 10899
10952 10953 10953 10954 10956 10956 10955 10954 10953 10952 10952 10953 10953 10952 10951 10951 10949 10947 10946 10945 10944 10942 10940 10938 10936 10935 10935 10934 10934 10934 10934 10935 10934 10934 10933 10932 10931 10929 10928 10927 10925 10924 10924 10923 10922 10921 10921 10920 10920 10919 10918 10916 10914 10913 10911 10910 10909 10907 10905 10903 10901 10899 10896
10949 10950 10950 10950 10950 10951 10952 10953 10953 10952 10952 10952 10950 10948 10947 10946 10944 10943 10941 10940 10939 10938 10937 10936 10934 10933 10932 10932 10931 10931 10931 10932 10932 10931 10930 10929 10928 10927 10925 10924 10923 10922 10922 10921 10921 10920 10920 10919 10918 10916 10916 10914 10912 10911 10909 10907 10905 10903 10902 10900 10898 10895 10893
10947 10947 10946 10945 10946 10947 10949 10950 10951 10951 10952 10951 10949 10945 10943 10941 10940 10940 10939 10937 10937 10936 10935 10934 10933 10932 10931 10931 10930 10929 10929 10929 10929 10929 10928 10927 10925 10924 10923 10922 10921 10920 10920 10919 10919 10918 10918 10917 10916 10914 10913 10912 10910 10909 10907 10905 10903 10901 10899 10897 10895 10892 10890
10944 10944 10942 10942 10943 10944 10946 10946 10946 10948 10950 10949 10947 10943 10940 10938 10936 10936 10936 10935 10935 10935 10934 10932 10932 10931 10929 10929 10928 10927 10927 10927 10927 10926 10925 10924 10923 10922 10921 10920 10919 10918 10918 10917 10917 10916 10916 10915 10914 10912 10911 10910 10908 10906 10905 10903 10900 10898 10896 10893 10891 10889 10886
10940 10939 10938 10938 10939 10941 10942 10942 10944 10947 10949 10947 10944 10941 10938 10935 10933 10931 10933 10935 10934 10933 10932 10931 10930 10929 10927 10926 10925 10925 10925 10925 10924 10924 10923 10922 10920 10919 10918 10917 10917 10916 10916 10915 10915 10914 10914 10913 10911 10909 10908 10906 10905 10903 10901 10899 10897 10894 10892 10890 10887 10885 10882
10935 10933 10932 10934 10936 10938 10940 10942 10945 10948 10947 10943 10939 10936 10934 10932 10929 10926 10928 10933 10933 10931 10930 10930 10928 10926 10924 10923 10922 10922 10922 10922 10922 10921 10920 10920 10918 10917 10916 10915 10915 10914 10914 10913 10913 10912 10912 10910 10908 10906 10904 10903 10901 10899 10898 10895 10893 10890 10888 10886 10883 10881 10878
10929 10928 10928 10931 10935 10938 10940 10943 10946 10947 10944 10938 10935 10934 10932 10931 10930 10927 10927 10930 10932 10931 10929 10928 10926 10924 10921 10920 10919 10919 10920 10919 10919 10919 10918 10917 10917 10915 10914 10913 10913 10913 10912 10911 10910 10910 10909 10907 10905 10904 10902 10900 10898 10896 10894 10892 10889 10887 10884 10882 10880 10877 10874
10926 10926 10928 10932 10936 10939 10940 10941 10943 10942 10939 10936 10934 10933 10932 10932 10933 10933 10932 10931 10931 10930 10927 10925 10923 10921 10919 10917 10916 10916 10917 10917 10917 10917 10917 10916 10915 10914 10912 10911 10911 10911 10910 10909 10908 10907 10906 10904 10902 10900 10899 10897 10895 10892 10890 10888 10886 10883 10881 10878 10876 10873 10869
10925 10926 10930 10934 10937 10938 10936 10936 10937 10938 10937 10935 10934 10932 10932 10934 10935 10934 10933 10932 10931 10928 10924 10922 10921 10919 10917 10915 10914 10914 10914 10915 10915 10915 10915 10915 10914 10912 10911 10909 10909 10908 10908 10907 10905 10905 10904 10902 10899 10897 10895 10893 10891 10889 10886 10884 10881 10879 10877 10874 10871 10868 10864
10925 10928 10933 10935 10935 10934 10933 10933 10933 10935 10935 10933 10932 10932 10932 10933 10934 10933 10932 10931 10930 10927 10923 10922 10921 10919 10918 10915 10912 10912 10913 10914 10915 10915 10915 10914 10912 10911 10909 10908 10907 10905 10904 10904 10902 10901 10900 10898 10896 10894 10892 10890 10888 10885 10883 10880 10878 10875 10873 10870 10867 10863 10859
10927 10930 10933 10934 10932 10932 10932 10932 10932 10933 10932 10929 10929 10931 10932 10932 10932 10932 10931 10930 10929 10925 10924 10923 10921 10920 10920 10915 10910 10912 10915 10915 10916 10915 10914 10913 10911 10910 10908 10906 10905 10903 10902 10900 10899 10897 10897 10895 10893 10891 10889 10887 10885 10883 10880 10877 10874 10872 10869 10866 10863 10859 10855
10928 10931 10932 10931 10930 10931 10932 10931 10930 10930 10928 10927 10929 10930 10931 10930 10930 10930 10930 10930 10928 10925 10924 10925 10922 10918 10916 10913 10911 10914 10917 10916 10916 10916 10914 10912 10910 10908 10906 10904 10903 10901 10899 10898 10896 10894 10893 10892 10890 10888 10886 10884 10882 10880 10877 10874 10871 10868 10865 10862 10859 10855 10851
10928 10930 10930 10928 10928 10930 10930 10929 10928 10927 10926 10926 10928 10928 10929 10929 10929 10928 10928 10928 10927 10925 10924 10924 10922 10919 10916 10914 10914 10918 10918 10917 10917 10915 10913 10910 10908 10906 10904 10902 10901 10898 10897 10896 10893 10891 10889 10889 10887 10886 10883 10881 10879 10877 10874 10871 10868 10865 10862 10858 10855 10851 10847
10927 10928 10926 10926 10927 10929 10928 10925 10925 10925 10925 10924 10926 10927 10927 10928 10927 10926 10926 10925 10925 10925 10923 10921 10919 10917 10917 10916 10918 10921 10920 10918 10917 10914 10910 10908 10906 10904 10902 10900 10898 10896 10894 10893 10891 10888 10886 10885 10884 10883 10881 10878 10876 10873 10870 10867 10864 10861 10858 10854 10851 10846 10841
10926 10925 10924 10924 10926 10927 10925 10923 10922 10924 10923 10923 10924 10925 10926 10926 10926 10926 10925 10923 10923 10924 10924 10921 10917 10914 10913 10915 10919 10923 10923 10922 10921 10919 10913 10906 10902 10901 10900 10898 10896 10894 10891 10890 10888 10886 10884 10882 10880 10879 10878 10875 10873 10870 10867 10864 10861 10857 10854 10850 10846 10842 10837
10925 10924 10922 10922 10924 10925 10923 10921 10921 10922 10923 10922 10922 10923 10923 10924 10924 10925 10924 10923 10922 10923 10923 10921 10917 10913 10912 10914 10920 10925 10926 10924 10922 10920 10915 10908 10901 10898 10897 10895 10893 10891 10889 10887 10886 10884 10882 10879 10877 10875 10873 10871 10869 10867 10864 10861 10857 10854 10850 10846 10842 10837 10832
10924 10922 10921 10921 10922 10923 10922 10921 10920 10922 10923 10923 10922 10921 10921 10921 10921 10923 10923 10922 10921 10921 10922 10921 10918 10914 10912 10916 10923 10925 10923 10921 10918 10915 10913 10909 10901 10895 10895 10893 10891 10889 10887 10885 10884 10882 10880 10878 10875 10872 10870 10868 10865 10863 10860 10857 10853 10850 10846 10842 10837 10832 10827
10923 10922 10920 10919 10920 10920 10920 10919 10919 10920 10921 10922 10922 10920 10919 10918 10918 10919 10920 10920 10920 10920 10922 10923 10922 10918 10915 10917 10919 10919 10917 10917 10915 10912 10911 10907 10900 10894 10892 10891 10889 10886 10884 10882 10881 10879 10878 10875 10873 10870 10867 10865 10862 10859 10856 10853 10850 10846 10842 10837 10832 10827 10821
10921 10921 10919 10917 10918 10918 10918 10917 10918 10919 10919 10919 10919 10919 10917 10915 10914 10914 10915 10916 10916 10917 10920 10923 10924 10922 10918 10915 10912 10911 10912 10913 10912 10909 10906 10902 10897 10892 10890 10888 10885 10883 10881 10879 10877 10876 10875 10873 10870 10867 10865 10862 10859 10856 10853 10850 10846 10842 10837 10833 10827 10822 10816
10920 10919 10918 10916 10915 10916 10916 10916 10915 10917 10917 10916 10916 10916 10914 10913 10911 10911 10911 10911 10912 10913 10914 10916 10918 10919 10917 10913 10909 10907 10907 10907 10907 10904 10900 10897 10894 10890 10887 10885 10882 10880 10878 10875 10874 10872 10871 10869 10866 10864 10862 10859 10856 10853 10850 10847 10843 10839 10834 10829 10823 10817 10811
10918 10918 10917 10915 10914 10914 10915 10914 10913 10913 10914 10913 10912 10912 10912 10910 10908 10906 10906 10907 10908 10908 10908 10908 10910 10912 10912 10911 10910 10909 10907 10905 10903 10900 10896 10893 10891 10888 10884 10882 10879 10876 10874 10872 10870 10868 10867 10865 10863 10861 10859 10856 10853 10850 10847 10844 10840 10836 10831 10825 10819 10812 10806
10916 10916 10916 10914 10912 10911 10912 10911 10910 10910 10911 10910 10909 10908 10907 10906 10904 10902 10901 10901 10901 10902 10901 10902 10903 10904 10904 10905 10905 10906 10905 10902 10899 10896 10893 10889 10886 10883 10880 10877 10875 10873 10870 10868 10867 10865 10863 10862 10860 10858 10856 10854 10851 10848 10844 10841 10837 10833 10828 10822 10815 10809 10802
10913 10913 10913 10913 10911 10909 10908 10908 10907 10906 10906 10906 10905 10903 10902 10901 10900 10898 10897 10896 10895 10895 10895 10895 10896 10896 10896 10897 10897 10897 10897 10895 10893 10891 10888 10884 10881 10879 10876 10874 10871 10869 10867 10865 10864 10862 10860 10859 10857 10855 10853 10851 10848 10845 10842 10838 10834 10829 10824 10818 10812 10805 10799
10910 10910 10910 10910 10908 10906 10905 10905 10904 10903 10902 10901 10899 10898 10897 10896 10896 10894 10893 10891 10890 10889 10888 10888 10888 10888 10888 10888 10888 10888 10888 10887 10886 10884 10882 10879 10877 10874 10872 10870 10868 10866 10864 10862 10861 10860 10858 10857 10854 10852 10850 10848 10845 10842 10839 10836 10831 10826 10820 10814 10808 10802 10795
10908 10908 10907 10907 10906 10904 10902 10900 10900 10899 10897 10895 10893 10892 10892 10892 10891 10890 10889 10887 10885 10884 10883 10883 10882 10881 10881 10881 10880 10880 10880 10879 10878 10877 10876 10874 10872 10870 10868 10867 10865 10863 10861 10860 10858 10857 10855 10854 10852 10850 10848 10846 10843 10840 10836 10832 10827 10822 10816 10810 10804 10798 10791
10906 10905 10905 10904 10903 10901 10899 10897 10895 10894 10893 10891 10889 10888 10887 10887 10887 10886 10884 10882 10881 10880 10879 10878 10877 10876 10875 10875 10874 10874 10874 10873 10873 10872 10870 10869 10868 10867 10865 10863 10862 10861 10859 10857 10855 10854 10852 10851 10850 10849 10846 10843 10840 10837 10833 10829 10824 10818 10813 10807 10801 10794 10787
10903 10902 10902 10901 10900 10898 10896 10893 10891 10889 10888 10888 10886 10885 10884 10883 10882 10881 10880 10879 10877 10876 10875 10874 10873 10872 10871 10871 10870 10868 10868 10869 10869 10868 10867 10866 10865 10864 10862 10861 10859 10857 10856 10854 10853 10852 10850 10848 10847 10845 10843 10840 10837 10834 10830 10825 10821 10815 10809 10803 10797 10790 10783
10900 10899 10898 10898 10896 10894 10892 10890 10888 10886 10884 10884 10883 10883 10881 10880 10879 10878 10877 10876 10874 10873 10872 10871 10870 10869 10868 10868 10867 10865 10864 10865 10865 10865 10864 10864 10862 10861 10860 10858 10857 10855 10853 10852 10851 10849 10848 10846 10844 10842 10840 10837 10834 10831 10827 10822 10817 10812 10807 10801 10794 10787 10779
10896 10896 10895 10894 10893 10892 10890 10888 10885 10884 10882 10880 10880 10879 10878 10877 10876 10875 10874 10873 10871 10870 10870 10869 10868 10867 10865 10865 10864 10863 10862 10862 10862 10862 10861 10860 10859 10858 10857 10855 10854 10852 10851 10849 10848 10847 10845 10844 10842 10840 10837 10834 10831 10828 10824 10819 10814 10809 10803 10798 10791 10784 10776
10893 10893 10892 10891 10890 10889 10888 10886 10883 10882 10880 10878 10877 10876 10876 10875 10874 10872 10871 10870 10869 10868 10867 10867 10866 10865 10864 10863 10862 10862 10861 10861 10861 10860 10859 10858 10857 10855 10854 10852 10851 10850 10849 10847 10846 10844 10843 10841 10839 10837 10834 10832 10829 10825 10821 10816 10811 10806 10800 10794 10788 10781 10774